{"data":{"norad_id":66444,"epoch":"2026-05-25T04:21:06.052320Z","epoch_age_seconds":49555,"freshness":"FRESH","line1":"1 66444U 25259Y   26145.18132005  .00017779  00000+0  65395-3 0  9996","line2":"2 66444  42.9998 202.0145 0001195 270.0024  90.0691 15.27584610 31190","mean_motion":15.2758461,"eccentricity":0.0001195,"inclination_deg":42.9998,"raan_deg":202.0145,"arg_perigee_deg":270.0024,"mean_anomaly_deg":90.0691,"bstar":0.00065395,"rev_number":3119,"period_min":94.266464232053,"perigee_km":482.21538198703,"apogee_km":483.85520216483,"semimajor_km":6861.1722920759,"source":"CELESTRAK","updated_at":"2026-05-25T13:38:21.211879Z"}}